sat.trackr.live / text

‹ back to catalog

STARLINK-34287

NORAD 64670 · 2025-139G

PAYLOAD ACTIVE UNKNOWN

§ Identity

Operator
Country
US
Launch date
2025-06-28
Launch site
AFETR
Launch vehicle
Mass (kg)
RCS (m²)

Purposes: comms

External: N2YO · Heavens-Above · Gunter

§ Orbital elements

Epoch: 2026-09-20T09:03:36.686016Z

Period
93.85 min
Inclination
53.1593°
Eccentricity
0.0000835
Mean motion
15.34376107 rev/d
Perigee alt
462.2 km
Apogee alt
463.3 km
Semi-major
6,840.9 km
B*
3.1972e-4
RAAN
298.3426°
Arg perigee
82.7932°
Mean anomaly
277.3165°
Rev number
7,015

§ Raw data

STARLINK-342871 64670U 25139G   26263.37750794  .00010433  00000+0  31972-3 0  99992 64670  53.1593 298.3426 0000835  82.7932 277.3165 15.34376107 70153

JSON: /api/v1/satellites/64670 · /tle

For live sub-satellite position, see the globe view (requires WebGL).

§ Visibility from observer

Set your observer location to see the next 7 days of passes ≥ 10°. The values pass through the URL so the page stays shareable.

No JS? Fill the form by hand. The geolocation button needs JavaScript.